Flag for Germany Weather past 2 weeks in Sindelfingen, Baden-Württemberg, Germany

41 °F

Partly sunny.

Feels Like: 38 °F
Forecast: 34 / 46 °F
Wind: 5 mph from East

Location: Stuttgart-Echterdingen

Current Time: Oct 13, 2015 at 9:43:25 AM

Latest Report: Oct 13, 2015 at 9:20 AM

Visibility: 4 mi

Pressure: 29.92 "Hg

Humidity: 93%

Dew point: 39 °F

Location of SindelfingenLocation

Historic Weather in Sindelfingen — Graph


Sindelfingen temperature yesterday

Maximum temperature yesterday: 55 °F (at 2:50 PM)
Minimum temperature yesterday: 37 °F (at 6:20 AM)
Average temperature yesterday: 45 °F

Past Weeks' High & Low Weather Summary

High72 °F (Oct 3, 3:50 PM)100% (Oct 4, 8:20 PM)30.51 "Hg (Oct 4, 8:20 PM)
Low37 °F (Oct 12, 6:20 AM)32% (Sep 30, 3:50 PM)29.74 "Hg (Oct 6, 9:50 AM)
Average53 °F74%30.10 "Hg
* Reported Sep 28 8:20 AM — Oct 13 8:20 AM, Sindelfingen, Weather by CustomWeather, © 2015

Note: Actual official high and low records may vary slightly from our data, if they occured in-between our weather recording intervals... More about our weather records


Sindelfingen weather history for previous 24 hours

Time TempWeatherWind HumidityBarometerVisibility
8:20 AM
Tue, Oct 13
39 °FPassing clouds.1 mph93%29.92 "Hg5 mi
7:50 AM39 °FPassing clouds.1 mph93%29.92 "HgN/A
7:20 AM39 °FPassing clouds.2 mph93%29.92 "HgN/A
6:50 AM37 °FPassing clouds.5 mph100%29.92 "Hg6 mi
6:20 AM37 °FClear.2 mph100%29.92 "Hg6 mi
5:50 AM39 °FClear.1 mph93%29.92 "Hg10 mi
5:20 AM39 °FClear.2 mph93%29.92 "Hg10 mi
4:50 AM39 °FClear.1 mph93%29.92 "Hg10 mi
4:20 AM41 °FClear.1 mph87%29.92 "Hg10 mi
3:50 AM41 °FClear.2 mph93%29.95 "Hg10 mi
3:20 AM43 °FClear.1 mph87%29.95 "Hg10 mi
2:50 AM43 °FClear.1 mph87%29.95 "Hg10 mi
2:20 AM43 °FClear.2 mph87%29.95 "Hg10 mi
1:50 AM43 °FClear.No wind87%29.95 "Hg10 mi
1:20 AM43 °FClear.2 mph87%29.95 "Hg10 mi
12:50 AM43 °FClear.1 mph87%29.95 "Hg10 mi
12:20 AM43 °FClear.1 mph87%29.95 "Hg10 mi
11:50 PM
Mon, Oct 12
43 °FClear.1 mph87%29.98 "Hg10 mi
11:20 PM45 °FClear.2 mph81%29.98 "Hg10 mi
10:50 PM45 °FClear.1 mph81%29.98 "Hg10 mi
10:20 PM45 °FClear.2 mph81%29.98 "Hg10 mi
9:50 PM46 °FClear.1 mph76%29.98 "Hg10 mi
9:20 PM45 °FClear.3 mph81%29.98 "Hg10 mi
8:50 PM46 °FClear.2 mph76%29.98 "Hg10 mi
8:20 PM46 °FClear.3 mph76%29.98 "Hg10 mi
7:50 PM46 °FClear.3 mph71%29.98 "Hg10 mi
7:20 PM48 °FSunny.3 mph66%29.98 "Hg10 mi
6:50 PM50 °FSunny.5 mph62%29.98 "Hg10 mi
6:20 PM52 °FSunny.5 mph58%29.98 "Hg10 mi
5:50 PM52 °FSunny.5 mph58%29.98 "Hg10 mi
5:20 PM54 °FPassing clouds.5 mph54%29.98 "HgN/A
4:50 PM54 °FSunny.6 mph54%29.95 "Hg10 mi
4:20 PM55 °FPassing clouds.7 mph51%29.95 "HgN/A
3:50 PM55 °FPassing clouds.6 mph47%29.95 "HgN/A
3:20 PM55 °FPassing clouds.6 mph47%29.98 "HgN/A
2:50 PM55 °FPassing clouds.7 mph47%29.98 "HgN/A
2:20 PM54 °FPassing clouds.6 mph51%29.98 "HgN/A
1:50 PM54 °FPassing clouds.7 mph51%29.98 "HgN/A
1:20 PM52 °FPassing clouds.6 mph54%30.01 "HgN/A
12:50 PM50 °FPassing clouds.6 mph58%30.01 "HgN/A
12:20 PM48 °FPassing clouds.7 mph62%30.01 "HgN/A
11:50 AM48 °FPassing clouds.6 mph62%30.01 "HgN/A
11:20 AM46 °FPassing clouds.6 mph62%30.01 "HgN/A
10:50 AM45 °FSunny.7 mph71%30.01 "Hg10 mi
10:20 AM43 °FSunny.8 mph76%30.01 "Hg10 mi
9:50 AM43 °FSunny.9 mph81%30.01 "Hg10 mi
9:20 AM41 °FSunny.8 mph87%30.01 "Hg10 mi
Weather by CustomWeather, © 2015

See weather overviewHow to use our weather pages